Tracking 30142 objects as of 21-Jan-2025
HD Live streaming from Space Station
objects crossing your sky now

SL-8 DEB *

Track SL-8 DEB * now!
10-day predictions


NORAD ID: 3931
Int'l Code: 1965-020EV
Perigee: 1,380.6 km
Apogee: 1,687.8 km
Inclination: 56.1 °
Period: 116.6 minutes
Semi major axis: 7905 km
RCS: 0.0346 m2 (small)
Launch date: March 15, 1965
Source: Commonwealth of Independent States (former USSR) (CIS)
Launch site: TYURATAM MISSILE AND SPACE COMPLEX (TTMTR)

Note: This is SATELLITE DEBRIS
Your satellite tracking list
Your tracking list is empty




NASA's NSSDC Master Catalog

Two Line Element Set (TLE):
1 03931U 65020EV  25021.45766101 -.00000077  00000-0  11507-3 0  9991
2 03931  56.0618 126.0277 0194280 133.2922 303.9971 12.35196239713931
Source of the keplerian elements: AFSPC